Temperature
24 24 23 24 27 28 30 34 34 34 34 34 34 34 32 30 29 28 28 26 24 24 24 23 22 21 21 21 21 20 20 20 20 20 20 20 21 20 20 20 20 19 19 19 19 20 20 20 20
24 23 25 27 27 26 30 34 34 34 34 34 34 34 32 30 29 28 27 25 24 24 24 24 23 22 21 21 21 20 20 20 20 20 20 20 20 20 20 20 20 20 20 20 20 20 20 20 20
25 25 28 30 28 26 28 34 34 34 34 34 34 32 31 29 28 27 26 25 24 24 24 24 23 22 22 21 21 20 20 20 20 20 20 20 20 20 20 20 20 20 20 20 20 20 20 20 20
25 28 30 32 32 30 31 34 35 34 34 34 34 31 29 28 28 27 26 25 23 23 24 24 23 23 22 21 21 21 20 20 20 20 20 20 20 20 20 20 20 20 20 20 20 20 20 20 20
27 30 32 33 34 33 34 35 35 34 34 35 33 30 28 28 27 26 26 26 24 22 23 24 23 23 22 22 21 21 21 21 21 21 20 20 20 20 20 20 20 20 20 20 19 19 19 19 19
30 33 33 34 34 34 35 35 35 34 34 34 32 30 28 27 26 26 26 26 25 23 23 24 23 23 22 22 22 21 21 21 21 21 21 20 20 20 20 20 20 20 19 19 19 19 19 19 19
31 32 33 34 34 33 35 35 33 32 31 31 31 30 28 27 27 27 27 26 26 24 23 24 24 23 23 23 22 22 22 21 21 21 21 20 20 20 20 20 20 20 19 19 19 19 19 19 19
31 33 33 35 35 34 34 33 33 31 29 30 31 30 29 27 27 27 27 27 26 25 23 24 24 23 23 23 22 22 21 21 21 21 20 20 20 20 20 20 20 20 19 19 19 19 19 19 19
32 32 32 35 35 34 33 32 32 32 31 31 31 30 29 27 27 27 27 27 26 25 23 23 22 23 23 22 22 22 21 21 21 21 20 20 20 20 20 20 19 19 19 19 19 19 19 19 19
33 32 34 36 36 35 35 34 34 33 34 32 30 29 28 27 27 27 27 26 25 25 24 23 23 22 22 21 21 21 21 21 21 21 20 20 20 19 19 19 19 19 19 19 19 19 19 18 19
34 33 35 36 35 35 35 35 35 35 35 33 30 28 27 27 27 27 27 26 25 25 25 24 24 22 22 22 21 21 20 20 20 20 20 19 19 19 19 19 19 19 19 19 19 18 18 18 19
34 34 34 35 35 35 35 35 35 36 35 32 30 27 26 27 28 28 27 27 26 24 24 24 24 23 22 22 22 21 21 21 20 20 20 19 19 19 19 19 19 19 18 18 18 18 18 18 18
33 34 34 34 34 34 34 35 35 35 35 33 31 28 28 28 28 28 28 27 26 25 24 24 23 23 22 22 22 21 21 21 21 20 20 19 19 19 19 19 19 19 18 18 18 18 18 18 18
33 33 34 34 34 34 35 35 35 35 35 34 32 31 30 29 29 29 28 27 26 25 24 24 23 22 21 21 21 21 21 20 20 20 20 19 19 19 19 19 19 19 19 18 18 18 18 18 18
32 32 32 33 34 34 35 34 35 35 35 34 33 32 31 30 30 28 27 27 25 24 23 23 22 21 21 20 20 20 20 20 20 20 19 19 19 19 19 19 18 18 18 18 18 18 18 18 18
32 31 31 33 34 35 34 32 34 35 35 34 33 32 31 30 30 28 27 26 25 24 23 22 22 21 21 20 20 20 20 20 20 20 19 19 18 18 18 18 18 18 18 18 18 18 18 18 18
31 31 31 33 35 35 34 33 34 34 34 34 33 32 31 30 29 28 27 26 25 23 22 22 22 21 21 20 20 20 20 20 20 20 19 18 18 18 18 17 17 17 17 17 17 17 17 17 17
31 32 33 33 34 34 33 33 34 33 32 32 32 31 30 29 28 27 26 25 24 23 22 22 21 21 20 20 20 20 20 20 20 20 19 18 18 18 17 17 17 17 17 17 17 17 17 17 17
31 31 32 33 34 33 32 32 33 32 31 31 31 31 29 28 27 26 24 23 23 22 22 21 21 21 20 21 20 21 21 20 20 20 19 18 18 17 17 17 17 16 16 16 16 16 16 16 16
31 31 31 32 33 32 31 32 33 33 32 31 30 28 26 26 24 22 21 21 22 21 21 21 20 20 20 21 21 21 21 20 20 20 19 19 18 17 17 17 16 16 16 16 16 16 15 15 16
30 30 30 30 31 31 31 31 32 32 30 27 24 23 22 20 18 18 17 18 20 21 21 21 21 21 20 21 21 21 20 20 20 20 19 19 18 17 17 17 16 16 16 16 15 15 15 15 15
29 30 30 30 30 30 31 29 30 29 26 23 21 19 17 16 17 17 17 17 18 19 20 20 21 21 20 20 20 20 20 20 20 20 20 19 19 18 17 17 17 16 16 16 16 15 15 15 15
30 31 30 30 29 29 29 28 28 28 24 21 20 18 16 16 16 16 16 17 18 19 19 18 19 19 19 19 19 19 20 20 20 20 19 19 19 18 17 17 16 16 16 16 16 16 16 15 15
31 30 30 29 26 23 22 23 26 26 24 22 20 18 16 16 16 16 16 16 17 18 18 18 18 18 18 18 18 18 18 18 19 19 19 19 18 18 17 17 16 16 16 16 16 16 15 15 15
30 29 28 26 22 20 21 22 24 24 23 22 20 18 17 16 16 15 15 15 15 15 15 16 16 16 16 16 16 17 17 17 17 18 18 18 18 18 18 17 17 17 16 16 15 15 15 14 14
29 29 27 26 26 27 25 24 21 21 21 21 20 19 18 17 16 16 15 15 15 14 14 14 15 15 15 15 15 15 15 15 16 16 16 17 17 17 17 17 17 17 16 16 15 15 15 14 14
29 29 29 28 28 27 27 22 19 19 19 20 20 19 18 18 17 16 16 15 14 14 14 14 14 14 15 15 15 14 14 14 14 15 15 16 16 16 16 16 16 16 16 15 15 15 15 14 14
30 29 28 27 26 26 27 24 20 18 18 19 20 19 18 18 17 16 16 15 15 14 14 13 13 13 14 14 14 14 15 15 14 14 14 14 15 15 15 15 15 15 15 15 15 15 15 15 15
29 29 28 28 27 25 25 23 21 19 19 19 19 18 17 17 16 16 15 15 14 14 14 13 12 12 12 12 12 12 13 13 14 14 14 14 14 14 14 14 14 14 14 14 14 14 14 14 14
28 28 28 26 25 26 25 21 20 19 18 18 18 17 17 16 15 15 15 14 14 13 13 12 12 12 11 11 11 11 11 11 11 12 13 13 13 14 13 13 13 14 14 14 14 14 14 14 14
Wind_Speed
10 12 10 7 6 7 7 9 12 14 12 10 8 7 19 17 11 10 14 22 25 22 20 20 18 15 15 16 16 15 15 15 13 12 11 11 10 9 8 8 8 9 9 9 9 9 9 9 9
11 14 10 5 4 6 3 9 10 10 7 5 6 8 18 14 12 13 17 22 24 21 19 19 19 16 15 16 16 16 15 15 14 12 12 11 11 10 8 8 8 8 7 7 7 7 7 7 7
12 16 6 6 5 2 5 7 8 7 5 5 10 14 12 10 10 11 17 21 22 20 19 21 20 17 16 15 15 15 15 14 14 13 12 11 10 10 9 8 8 7 7 7 6 6 7 6 6
9 8 7 10 8 7 6 3 5 7 3 4 13 12 9 7 8 16 18 20 21 19 19 21 20 18 16 15 15 14 14 13 13 12 12 11 10 9 9 8 8 7 7 7 6 6 7 6 6
11 7 12 14 5 5 5 3 3 7 4 9 18 14 11 9 15 18 17 20 19 19 19 20 19 17 16 15 15 14 14 13 13 12 12 11 10 10 9 9 9 9 9 9 9 9 9 9 9
7 8 13 11 1 6 4 4 4 4 5 9 19 17 10 12 14 16 16 17 18 20 19 19 19 18 16 15 14 14 14 14 13 13 13 12 11 11 10 10 10 10 10 10 10 10 10 10 11
11 13 18 20 4 7 4 6 8 2 8 5 9 13 12 15 15 16 15 15 18 21 20 17 18 17 17 16 16 16 15 15 15 14 14 14 13 13 12 12 12 12 12 11 11 11 11 10 10
13 13 20 20 9 4 4 9 5 14 11 4 4 8 15 18 16 16 14 13 14 19 20 17 16 16 15 15 16 15 15 14 14 14 14 14 14 14 15 15 16 16 15 15 14 14 14 14 14
15 14 18 18 9 1 5 4 2 1 11 11 6 14 21 21 19 17 15 12 10 15 18 17 17 15 15 16 18 17 16 16 15 15 16 15 14 16 17 21 21 20 19 18 17 17 17 16 17
12 14 20 12 7 3 1 2 2 5 9 12 13 16 22 21 19 18 17 16 14 12 15 13 16 16 15 13 15 15 15 16 16 15 17 16 15 14 15 16 24 23 22 20 20 19 17 16 14
15 19 20 16 9 7 9 10 8 10 7 14 16 15 15 19 18 18 17 17 16 13 11 12 13 14 12 8 11 9 10 11 16 17 15 14 12 11 11 6 11 16 17 16 16 17 15 14 12
18 17 18 16 13 12 11 14 13 12 1 15 21 21 21 20 19 18 18 18 18 15 13 13 9 9 5 3 5 5 5 4 6 12 15 9 5 5 3 2 2 6 8 8 8 7 11 12 13
15 15 18 19 17 15 15 15 16 16 1 11 17 22 21 19 18 17 16 16 17 16 13 11 9 8 6 2 2 2 1 2 2 4 6 6 4 4 4 3 2 3 4 3 4 5 7 8 6
15 18 18 16 16 17 18 16 16 19 12 12 11 12 14 17 18 14 14 14 15 14 13 10 10 9 7 5 3 1 3 1 2 2 2 1 2 2 3 4 3 3 4 4 3 5 5 5 4
15 17 19 20 21 21 19 17 17 19 17 9 10 10 10 13 14 14 15 15 16 13 12 11 10 12 9 6 5 4 5 4 2 2 2 1 3 3 4 4 5 4 5 6 5 6 6 6 7
17 18 21 23 23 21 14 14 16 17 15 9 8 10 9 9 13 15 14 14 16 14 13 12 12 13 11 6 4 4 4 1 1 2 2 1 2 3 3 4 4 4 4 5 6 7 7 7 7
17 19 21 22 22 16 11 13 15 10 7 4 6 7 8 9 12 13 15 13 14 13 12 11 7 9 9 8 6 5 3 2 2 2 3 3 1 2 2 3 4 4 5 5 7 6 6 7 7
14 13 14 16 7 6 9 13 10 7 9 10 6 5 7 10 11 12 12 12 13 13 11 9 7 6 6 6 5 3 2 3 3 3 5 3 1 2 2 4 1 2 3 4 4 4 5 6 6
11 14 15 9 4 1 8 13 10 4 7 10 8 7 9 10 11 3 4 8 12 11 9 7 7 7 4 2 2 2 2 0 0 3 6 2 1 1 1 4 4 5 5 5 5 5 7 7 6
10 11 12 10 8 7 10 14 14 9 9 6 5 5 3 3 2 10 9 7 8 9 8 6 7 8 6 5 3 2 2 1 1 2 4 3 2 0 4 3 4 6 5 6 6 6 6 7 7
10 10 12 11 10 11 15 17 16 9 5 10 13 13 12 15 18 21 18 12 7 6 5 6 7 7 5 7 4 4 3 3 3 3 3 4 2 1 1 2 4 5 5 6 5 6 7 6 6
10 8 10 12 13 13 14 13 6 5 12 16 19 21 19 20 21 19 15 14 16 14 10 7 4 4 3 4 3 2 2 2 1 2 2 4 3 4 3 3 4 4 5 6 7 5 5 6 7
11 12 14 15 14 15 13 11 3 12 14 17 18 17 17 18 18 17 13 13 15 18 19 18 15 10 7 5 6 5 5 5 3 2 3 4 5 6 6 5 4 4 5 6 6 6 6 6 7
10 13 16 13 6 8 10 10 1 6 11 15 16 17 17 17 16 14 13 12 13 15 15 15 17 18 18 16 13 10 9 9 9 8 6 4 4 6 8 7 5 4 5 5 6 7 8 7 7
12 12 10 7 1 7 12 10 2 9 14 15 16 16 16 15 15 14 14 13 13 15 14 14 15 14 14 16 17 16 13 9 10 10 9 7 5 5 5 5 3 3 5 6 7 7 8 8 8
11 10 10 15 13 7 12 5 7 13 14 14 14 14 14 13 13 13 12 12 12 12 12 12 12 11 11 11 11 12 14 12 10 11 10 8 4 3 1 3 4 5 6 7 7 7 8 7 7
7 10 15 14 15 14 2 8 8 10 10 9 10 11 11 10 10 10 9 9 9 8 9 9 9 9 10 10 10 8 9 10 11 12 11 9 8 8 5 3 4 5 6 7 7 7 8 7 7
4 9 8 8 11 14 15 3 4 8 7 3 6 9 9 8 8 8 7 7 7 6 5 6 7 8 9 9 9 10 9 8 8 9 10 10 11 10 10 8 6 6 7 7 7 7 7 7 7
8 9 9 8 10 12 16 6 7 8 6 6 7 8 8 10 10 10 9 9 9 9 9 7 7 7 8 8 9 9 10 10 9 8 7 8 9 10 11 10 9 8 8 8 8 8 8 7 7
12 9 8 8 10 11 14 5 8 8 6 6 7 9 10 11 12 12 12 11 9 9 8 8 7 8 7 7 7 8 8 9 10 10 9 9 9 9 10 11 10 10 11 10 9 8 8 6 7
Wind_Direction
236 236 225 245 264 268 277 64 60 56 58 62 48 39 61 54 64 83 111 110 114 123 131 130 127 127 127 133 140 142 142 142 142 142 138 131 126 124 119 114 111 113 116 112 109 107 107 108 111
263 252 235 246 269 315 316 83 74 66 60 82 80 72 79 70 81 105 111 114 120 128 138 138 135 136 135 137 142 147 149 149 150 149 146 144 144 143 138 130 127 126 126 126 125 124 122 121 122
261 261 256 231 210 222 281 91 93 95 85 86 84 60 64 86 105 118 121 127 127 133 139 139 144 144 143 143 145 151 154 156 157 156 156 158 160 160 158 154 152 149 147 146 146 144 142 141 141
266 249 233 248 231 196 225 101 102 90 77 106 103 85 76 72 114 125 135 136 127 134 138 145 149 150 151 152 154 158 162 164 166 167 169 172 173 174 175 175 176 176 174 174 175 175 172 170 172
258 258 257 264 268 222 201 142 130 126 144 94 93 96 95 92 106 127 150 134 134 142 138 148 153 156 160 162 164 168 171 174 175 178 182 185 187 191 194 194 196 196 196 196 198 200 199 197 197
273 267 275 290 35 292 234 151 59 95 85 99 114 111 109 121 127 148 152 141 147 141 137 148 156 162 168 172 175 178 181 183 185 189 193 197 199 204 211 213 214 213 211 209 209 212 214 212 211
270 288 292 291 234 228 239 141 140 170 60 33 99 119 136 143 146 152 150 154 149 141 139 152 162 170 177 182 185 187 190 192 195 200 205 208 211 214 220 225 226 224 222 221 220 221 224 224 224
271 285 288 288 284 187 359 337 85 105 109 211 184 134 144 145 153 147 156 157 147 140 143 158 166 170 179 187 194 196 199 202 205 210 214 218 222 225 228 229 227 228 225 223 223 224 225 226 228
267 269 272 288 323 116 135 222 320 94 174 178 109 139 146 150 152 153 160 153 152 146 148 167 169 169 182 188 189 194 202 207 210 216 221 223 228 229 226 226 226 223 223 223 222 224 226 229 233
249 264 269 304 345 326 275 249 199 217 212 125 100 119 138 153 157 165 165 161 168 169 161 168 169 169 187 194 173 187 199 203 208 215 211 212 224 240 249 226 218 221 222 224 224 225 229 232 239
252 261 280 301 306 306 306 292 244 248 242 140 134 134 156 161 168 173 170 170 172 179 179 168 171 168 188 180 162 186 199 197 200 217 221 207 215 232 256 264 211 216 225 228 229 228 231 233 233
257 266 284 292 291 293 290 292 290 278 293 124 144 157 181 174 179 180 175 177 168 174 182 176 167 151 182 177 174 177 195 187 186 203 220 214 207 230 262 291 250 207 223 225 231 225 226 232 236
267 270 274 279 282 277 272 269 276 279 157 130 152 170 178 179 188 187 175 166 158 169 178 175 148 131 137 121 303 227 231 244 236 191 201 194 200 222 254 270 267 260 254 222 212 222 226 231 240
278 280 281 280 279 275 269 266 265 266 250 165 173 187 187 189 194 181 167 159 158 162 170 156 142 139 144 159 193 312 311 318 308 25 8 75 180 219 241 251 252 247 251 253 239 245 243 245 253
273 273 274 269 262 255 253 257 259 262 258 199 187 204 208 192 188 173 174 167 165 163 158 143 157 155 162 179 193 208 232 219 190 184 218 214 206 213 227 242 242 237 236 238 240 247 248 248 248
265 260 258 255 250 246 242 263 272 269 254 219 201 207 205 190 186 172 176 176 167 161 156 163 176 162 159 170 189 239 234 199 186 183 178 193 219 213 226 246 249 239 235 230 236 239 243 246 249
250 242 248 252 245 231 237 263 269 285 290 265 234 223 194 192 195 171 173 176 158 154 162 160 150 144 156 167 186 221 186 174 238 193 142 120 251 222 203 228 225 227 228 226 238 228 228 244 247
308 294 254 248 227 201 253 271 282 348 324 302 276 222 202 208 210 186 172 159 140 143 149 146 147 146 155 170 178 219 169 201 210 138 113 109 208 130 35 295 272 307 303 277 270 282 252 253 259
311 310 312 322 22 264 271 284 290 295 282 276 263 233 215 209 224 201 136 130 124 123 128 146 163 144 172 164 155 155 116 39 63 120 115 131 228 81 22 294 341 322 295 305 319 315 301 289 273
310 304 309 323 329 305 283 279 277 244 233 263 281 287 289 270 25 29 18 59 97 111 120 140 142 146 175 125 102 103 84 289 272 78 144 178 209 213 293 357 337 316 324 309 280 269 268 280 287
312 322 326 314 299 279 273 269 263 260 41 39 36 32 39 45 48 42 21 24 45 86 139 164 137 146 170 140 173 167 163 229 228 193 184 172 172 190 293 318 300 310 301 293 312 298 286 288 293
312 326 310 302 292 281 280 281 278 131 72 52 47 46 44 56 58 57 45 28 26 27 24 36 102 153 167 168 249 248 220 242 255 214 197 151 178 213 208 226 259 275 286 292 285 294 311 295 289
306 311 298 289 284 284 297 289 58 84 75 61 58 59 56 57 60 60 47 32 30 35 30 18 20 24 6 342 327 323 300 287 276 237 192 175 218 213 207 201 221 248 264 274 293 305 291 284 283
305 294 286 282 306 318 326 311 350 73 86 83 68 59 54 54 56 55 49 37 30 34 35 23 26 24 16 10 359 339 317 312 311 307 291 245 231 211 201 190 196 234 264 289 295 288 283 276 277
328 313 308 312 233 215 219 245 165 79 72 77 73 66 60 56 53 50 45 38 33 31 28 25 26 23 20 19 15 10 357 330 301 287 276 253 248 244 191 174 159 251 275 277 271 273 275 276 276
319 313 311 320 320 309 199 205 91 71 69 71 71 68 61 57 55 53 47 40 33 29 24 21 18 15 15 16 13 19 16 7 350 336 320 301 283 284 93 146 198 236 257 271 277 284 279 283 292
315 330 330 320 310 311 328 118 121 93 60 43 54 58 53 51 51 48 44 37 27 20 17 9 5 1 3 4 356 6 9 0 354 350 348 341 335 319 315 266 232 241 254 263 272 275 279 281 284
270 314 314 318 319 317 319 111 147 134 148 131 50 40 29 21 22 20 13 9 359 348 350 348 346 343 343 347 347 346 347 342 338 342 349 351 345 336 322 304 283 267 262 261 263 274 280 291 291
316 321 326 318 318 318 313 13 64 96 69 49 33 16 2 351 348 342 338 337 335 335 341 345 343 337 333 335 336 332 331 329 326 322 334 340 338 337 326 309 290 273 263 261 259 264 275 282 295
309 313 316 316 316 310 308 36 43 57 44 11 346 342 336 330 324 318 314 312 312 314 316 313 310 301 295 294 296 299 304 310 314 316 322 323 322 324 325 317 302 284 272 262 259 263 275 284 292
Height
1494 1493 1494 1498 1495 1489 1480 1460 1456 1458 1460 1463 1464 1463 1467 1476 1482 1493 1495 1495 1496 1499 1503 1507 1510 1513 1515 1518 1521 1523 1526 1528 1529 1531 1533 1534 1535 1537 1538 1540 1541 1543 1544 1544 1545 1546 1547 1548 1549
1493 1495 1500 1498 1496 1504 1483 1460 1460 1462 1463 1463 1464 1465 1472 1481 1486 1491 1495 1497 1498 1500 1504 1507 1510 1513 1516 1519 1521 1524 1526 1528 1530 1532 1533 1535 1536 1538 1539 1541 1542 1544 1545 1546 1546 1547 1548 1549 1549
1493 1496 1498 1489 1493 1502 1488 1460 1459 1460 1463 1463 1467 1472 1478 1485 1490 1493 1496 1499 1500 1501 1505 1508 1511 1514 1517 1519 1522 1524 1526 1528 1530 1532 1534 1535 1537 1538 1539 1541 1542 1544 1545 1546 1547 1548 1548 1549 1550
1495 1495 1492 1483 1480 1478 1471 1459 1457 1461 1464 1462 1466 1477 1486 1489 1490 1493 1497 1500 1501 1502 1505 1508 1511 1514 1517 1519 1522 1524 1526 1528 1530 1532 1534 1535 1537 1538 1539 1540 1542 1543 1544 1545 1547 1547 1548 1549 1549
1496 1492 1483 1475 1469 1466 1459 1457 1458 1461 1463 1463 1469 1481 1488 1492 1492 1495 1498 1501 1502 1505 1506 1509 1511 1514 1516 1519 1521 1524 1526 1528 1530 1532 1533 1535 1536 1538 1539 1540 1541 1542 1543 1544 1545 1546 1547 1547 1548
1495 1485 1480 1475 1469 1466 1456 1456 1457 1460 1464 1466 1471 1481 1490 1493 1494 1496 1499 1502 1504 1506 1506 1510 1512 1514 1516 1519 1521 1523 1525 1527 1529 1531 1532 1534 1535 1536 1537 1538 1539 1540 1541 1542 1543 1544 1545 1545 1546
1494 1485 1479 1469 1465 1469 1458 1457 1461 1467 1467 1468 1473 1480 1488 1492 1494 1496 1499 1502 1504 1506 1506 1510 1512 1514 1516 1518 1520 1522 1524 1526 1528 1529 1531 1532 1533 1534 1536 1537 1537 1538 1539 1540 1541 1541 1542 1543 1544
1491 1486 1478 1465 1460 1462 1460 1462 1462 1466 1473 1475 1473 1478 1484 1490 1493 1496 1499 1502 1505 1506 1505 1509 1511 1513 1516 1518 1520 1522 1523 1525 1526 1528 1529 1530 1531 1532 1533 1534 1535 1536 1537 1537 1538 1539 1540 1540 1541
1490 1488 1481 1465 1460 1461 1462 1468 1464 1465 1467 1469 1472 1472 1478 1486 1491 1494 1497 1500 1504 1506 1505 1508 1510 1511 1514 1516 1518 1520 1522 1523 1525 1526 1527 1528 1529 1530 1530 1531 1533 1533 1534 1535 1535 1536 1537 1537 1538
1483 1484 1472 1459 1458 1460 1460 1461 1461 1463 1463 1467 1475 1477 1480 1484 1488 1492 1495 1497 1501 1504 1506 1507 1509 1510 1513 1515 1516 1518 1520 1521 1522 1523 1524 1525 1526 1527 1529 1530 1530 1530 1531 1532 1532 1533 1534 1534 1534
1478 1476 1467 1461 1461 1461 1461 1459 1459 1459 1457 1462 1472 1479 1482 1484 1486 1489 1492 1494 1497 1501 1504 1506 1509 1509 1513 1515 1516 1516 1518 1519 1519 1521 1522 1522 1523 1524 1526 1528 1527 1527 1528 1528 1529 1529 1530 1530 1531
1474 1471 1469 1465 1465 1464 1464 1462 1458 1457 1458 1463 1469 1476 1480 1482 1483 1485 1487 1490 1494 1497 1501 1504 1507 1508 1511 1513 1515 1517 1518 1519 1518 1518 1518 1519 1519 1520 1522 1523 1524 1524 1525 1525 1526 1526 1526 1527 1527
1472 1471 1470 1468 1465 1464 1464 1462 1461 1458 1458 1464 1469 1473 1476 1478 1480 1482 1483 1486 1489 1493 1497 1500 1503 1504 1506 1508 1511 1514 1515 1516 1517 1517 1516 1515 1515 1517 1518 1518 1519 1519 1521 1521 1522 1522 1522 1522 1522
1474 1471 1467 1465 1464 1463 1461 1460 1460 1458 1457 1459 1465 1468 1471 1473 1475 1477 1480 1482 1484 1489 1493 1496 1498 1500 1502 1504 1507 1509 1510 1512 1513 1513 1513 1512 1512 1512 1514 1514 1514 1514 1515 1516 1517 1517 1517 1517 1518
1474 1473 1470 1466 1462 1459 1458 1458 1456 1455 1454 1455 1461 1465 1467 1470 1472 1474 1475 1477 1480 1484 1488 1491 1495 1497 1499 1501 1504 1506 1507 1509 1509 1510 1509 1509 1509 1509 1509 1509 1510 1510 1510 1511 1512 1512 1512 1512 1512
1473 1474 1474 1461 1454 1451 1457 1465 1454 1451 1450 1451 1456 1460 1464 1467 1468 1469 1471 1472 1474 1477 1482 1485 1490 1493 1495 1498 1500 1503 1505 1506 1506 1507 1507 1506 1506 1506 1506 1506 1506 1506 1507 1507 1507 1507 1507 1507 1507
1469 1472 1467 1454 1443 1444 1451 1459 1451 1449 1449 1451 1455 1458 1461 1464 1465 1465 1466 1467 1468 1471 1476 1479 1487 1490 1492 1495 1498 1500 1502 1503 1504 1505 1505 1504 1504 1504 1504 1505 1505 1504 1504 1504 1504 1504 1503 1503 1502
1469 1458 1453 1449 1440 1445 1453 1454 1449 1451 1453 1453 1454 1456 1458 1461 1463 1463 1462 1462 1463 1469 1473 1480 1483 1485 1489 1493 1496 1498 1501 1502 1503 1503 1503 1503 1503 1503 1503 1503 1504 1503 1502 1502 1502 1501 1500 1499 1499
1464 1462 1458 1449 1443 1451 1457 1455 1451 1452 1457 1457 1456 1455 1456 1456 1461 1459 1457 1456 1457 1467 1473 1478 1482 1483 1487 1491 1494 1496 1499 1501 1502 1502 1501 1501 1502 1502 1501 1501 1500 1500 1499 1499 1498 1497 1496 1495 1495
1465 1466 1462 1454 1449 1453 1457 1456 1449 1449 1452 1455 1456 1457 1457 1456 1458 1455 1453 1447 1458 1470 1477 1481 1483 1485 1487 1490 1492 1495 1497 1499 1501 1501 1500 1500 1500 1500 1500 1499 1497 1496 1496 1495 1494 1493 1492 1491 1492
1470 1471 1469 1467 1458 1455 1458 1458 1449 1446 1453 1458 1461 1463 1463 1465 1464 1461 1460 1458 1469 1477 1480 1483 1486 1487 1489 1490 1492 1494 1496 1498 1499 1499 1499 1498 1498 1498 1496 1495 1493 1492 1492 1491 1491 1490 1489 1488 1488
1474 1465 1465 1464 1467 1467 1459 1470 1453 1451 1461 1467 1468 1472 1474 1473 1472 1473 1473 1477 1479 1481 1481 1483 1486 1488 1490 1491 1492 1494 1496 1497 1497 1497 1497 1496 1496 1495 1494 1492 1491 1490 1489 1488 1487 1487 1486 1484 1483
1468 1462 1463 1463 1466 1471 1468 1473 1465 1454 1469 1476 1478 1481 1480 1478 1478 1478 1483 1484 1483 1480 1480 1482 1484 1487 1489 1490 1491 1492 1493 1495 1495 1495 1494 1493 1493 1492 1491 1489 1488 1487 1486 1485 1484 1483 1482 1480 1479
1461 1462 1460 1461 1477 1501 1498 1496 1480 1466 1472 1479 1482 1483 1481 1480 1480 1482 1483 1484 1483 1481 1481 1483 1484 1485 1486 1486 1487 1488 1490 1491 1492 1492 1491 1490 1490 1489 1488 1487 1485 1484 1483 1482 1481 1479 1478 1476 1475
1465 1472 1481 1485 1504 1511 1497 1496 1487 1478 1479 1482 1485 1486 1486 1485 1484 1485 1486 1486 1485 1484 1484 1483 1484 1484 1484 1484 1483 1483 1484 1485 1486 1488 1487 1487 1486 1486 1485 1484 1482 1482 1481 1479 1477 1476 1474 1473 1471
1469 1471 1486 1493 1487 1476 1480 1486 1492 1488 1490 1492 1492 1491 1491 1491 1490 1489 1489 1489 1489 1488 1487 1486 1485 1485 1483 1482 1482 1480 1479 1479 1480 1480 1480 1481 1482 1482 1481 1479 1479 1478 1477 1476 1475 1473 1471 1469 1467
1471 1471 1466 1474 1471 1473 1471 1488 1493 1492 1496 1497 1496 1496 1496 1496 1495 1494 1493 1492 1491 1490 1489 1488 1486 1485 1483 1482 1481 1480 1478 1477 1476 1475 1474 1474 1475 1476 1476 1475 1474 1473 1473 1472 1471 1469 1467 1465 1463
1464 1466 1470 1479 1490 1490 1474 1482 1496 1501 1500 1498 1499 1499 1500 1499 1498 1496 1495 1494 1493 1492 1490 1487 1485 1483 1481 1479 1478 1477 1475 1474 1473 1472 1470 1468 1468 1468 1468 1469 1469 1469 1468 1467 1467 1465 1464 1462 1459
1467 1469 1470 1474 1479 1493 1494 1496 1492 1497 1499 1500 1501 1502 1502 1501 1499 1497 1495 1493 1491 1490 1488 1486 1483 1480 1478 1476 1473 1471 1469 1468 1467 1466 1465 1464 1463 1462 1462 1462 1462 1463 1463 1463 1462 1461 1459 1457 1455
1469 1470 1472 1486 1488 1483 1488 1507 1499 1501 1503 1504 1503 1503 1502 1501 1499 1496 1493 1490 1488 1486 1484 1482 1480 1478 1475 1472 1469 1466 1464 1462 1460 1458 1457 1457 1457 1457 1456 1456 1456 1456 1456 1457 1457 1456 1455 1453 1451